Weather History for Jerez de la Frontera, Spain

Change the Weather History Date:

Wednesday, October 26, 2011

  Actual Average Record
Temperature  
Mean Temperature 64 °F -  
Max Temperature 74 °F 66 °F 84 °F (2002)
Min Temperature 55 °F 48 °F 48 °F (2002)
Growing Degree Days 14 (Base 50)    
Moisture  
Dew Point 56 °F    
Average Humidity 76    
Maximum Humidity 100    
Minimum Humidity 52    
Precipitation  
Precipitation 0.00 in 0.13 in - ()
Sea Level Pressure  
Sea Level Pressure 29.87 in    
Wind  
Wind Speed 7 mph ()    
Max Wind Speed 21 mph    
Max Gust Speed 25 mph    
Visibility 7.6 miles    
Events      
Averages and records for this station are not official NWS values.
T = Trace of Precipitation, MM = Missing Value Source: Averaged Metar Reports

Daily Weather History Graph

Daily Weather History Graph

Search for Another Location

Airport:

Trip Planner

Search our weather history database for the weather conditions in past years. The results will help you decide how hot, cold, wet, or windy it might be!

Date:

Astronomy

Oct. 26, 2011 Rise Set
Actual Time 8:41 AM CEST 7:34 PM CEST
Civil Twilight 8:15 AM CEST 8:00 PM CEST
Nautical Twilight 7:44 AM CEST 8:31 PM CEST
Astronomical Twilight 7:14 AM CEST 9:01 PM CEST
Moon 8:10 AM CEST (10/26) 7:08 PM CEST (10/26)
Length of Visible Light 11h 45m
Length of Day
10h 52m
Waning Crescent, 0% of the Moon is Illuminated
Oct 26
Waning Crescent
Oct 26
New
Nov 2
First Quarter
Nov 10
Full
Nov 18
Last Quarter

Hourly Weather History & Observations

Time (CEST) Temp. Dew Point Humidity Pressure Visibility Wind Dir Wind Speed Gust Speed Precip Events Conditions
2:00 AM 57 °F 55 °F 92% 29.96 in 16 mi ENE 2.3 mph - -  
5:00 AM 55.4 °F 55.4 °F 100% 29.89 in - Variable 2.3 mph - N/A   Clear
5:30 AM 57.2 °F 55.4 °F 94% 29.89 in - Calm Calm - N/A   Clear
6:00 AM 57.2 °F 55.4 °F 94% 29.92 in - Calm Calm - N/A   Clear
6:30 AM 57.2 °F 55.4 °F 94% 29.89 in - Variable 1.2 mph - N/A   Clear
7:00 AM 57.2 °F 55.4 °F 94% 29.89 in - Calm Calm - N/A   Clear
7:30 AM 57.2 °F 55.4 °F 94% 29.89 in - Variable 1.2 mph - N/A   Clear
8:00 AM 58 °F 56 °F 90% 29.91 in 19 mi ESE 2.3 mph - -   Scattered Clouds
8:00 AM 57.2 °F 55.4 °F 94% 29.89 in - Variable 1.2 mph - N/A   Clear
8:30 AM 57.2 °F 55.4 °F 94% 29.92 in - Variable 1.2 mph - N/A   Clear
9:00 AM 57.2 °F 55.4 °F 94% 29.92 in 6.2 mi Calm Calm - N/A   Partly Cloudy
9:30 AM 57.2 °F 55.4 °F 94% 29.92 in 6.2 mi Variable 1.2 mph - N/A   Partly Cloudy
10:00 AM 59.0 °F 55.4 °F 88% 29.92 in 6.2 mi Variable 1.2 mph - N/A   Partly Cloudy
10:30 AM 60.8 °F 57.2 °F 88% 29.92 in 6.2 mi Calm Calm - N/A   Partly Cloudy
11:00 AM 62.6 °F 55.4 °F 77% 29.92 in 6.2 mi SSE 10.4 mph - N/A   Partly Cloudy
11:30 AM 62.6 °F 55.4 °F 77% 29.92 in 6.2 mi SSE 12.7 mph - N/A   Partly Cloudy
12:00 PM 66.2 °F 57.2 °F 73% 29.92 in 6.2 mi SSE 11.5 mph - N/A   Partly Cloudy
12:30 PM 68.0 °F 57.2 °F 68% 29.92 in 6.2 mi South 15.0 mph - N/A   Partly Cloudy
1:00 PM 68.0 °F 57.2 °F 68% 29.89 in 6.2 mi South 16.1 mph - N/A   Partly Cloudy
1:30 PM 69.8 °F 55.4 °F 60% 29.89 in 6.2 mi South 16.1 mph - N/A   Partly Cloudy
2:00 PM 72 °F 58 °F 52% 29.89 in 19 mi South 15.0 mph - -   Overcast
2:00 PM 71.6 °F 55.4 °F 57% 29.89 in 6.2 mi South 13.8 mph 25.3 mph N/A   Partly Cloudy
2:30 PM 71.6 °F 55.4 °F 57% 29.86 in 6.2 mi South 13.8 mph - N/A   Partly Cloudy
3:00 PM 71.6 °F 53.6 °F 53% 29.86 in 6.2 mi South 17.3 mph - N/A   Partly Cloudy
3:30 PM 71.6 °F 53.6 °F 53% 29.86 in 6.2 mi South 17.3 mph - N/A   Partly Cloudy
4:00 PM 71.6 °F 53.6 °F 53% 29.86 in 6.2 mi SSW 19.6 mph - N/A   Partly Cloudy
4:30 PM 69.8 °F 53.6 °F 56% 29.83 in 6.2 mi South 16.1 mph - N/A   Partly Cloudy
5:00 PM 71.6 °F 53.6 °F 53% 29.83 in 6.2 mi SSW 20.7 mph - N/A   Partly Cloudy
5:30 PM 69.8 °F 55.4 °F 60% 29.83 in 6.2 mi South 17.3 mph - N/A   Partly Cloudy
6:00 PM 69.8 °F 57.2 °F 64% 29.83 in 6.2 mi South 18.4 mph - N/A   Partly Cloudy
6:30 PM 68.0 °F 59.0 °F 73% 29.80 in 6.2 mi South 17.3 mph - N/A   Partly Cloudy
7:00 PM 68.0 °F 59.0 °F 73% 29.80 in 6.2 mi SSW 16.1 mph - N/A   Partly Cloudy
7:30 PM 68.0 °F 59.0 °F 73% 29.80 in 6.2 mi South 16.1 mph - N/A   Scattered Clouds
8:00 PM 68 °F 61 °F 71% 29.82 in 16 mi South 13.8 mph - -   Scattered Clouds
8:00 PM 68.0 °F 59.0 °F 73% 29.80 in 6.2 mi South 13.8 mph - N/A   Scattered Clouds
8:30 PM 66.2 °F 59.0 °F 78% 29.80 in 6.2 mi South 15.0 mph - N/A   Scattered Clouds
9:00 PM 66.2 °F 59.0 °F 78% 29.80 in 6.2 mi South 12.7 mph - N/A   Scattered Clouds
9:30 PM 66.2 °F 59.0 °F 78% 29.80 in 6.2 mi South 13.8 mph - N/A   Scattered Clouds
10:00 PM 66.2 °F 57.2 °F 73% 29.80 in 6.2 mi South 15.0 mph - N/A   Scattered Clouds
10:30 PM 66.2 °F 57.2 °F 73% 29.77 in 6.2 mi South 13.8 mph - N/A   Scattered Clouds
11:00 PM 66.2 °F 57.2 °F 73% 29.77 in 6.2 mi South 18.4 mph - N/A   Scattered Clouds